Location: Arcueil
(48.7999°N, 2.3326°E)
Time: 08:02:22
(UTC+00:00)

Cosmos 2219 Rocket - Pass Details

Date: 03 February 2023
Orbit: 826 x 848 km, 71.0° (Epoch: 30 March)

Event Time Altitude Azimuth Distance (km) Brightness Sun altitude
Rises 18:04:19 0° 162° (SSE) 3,351 5.3 -12.3°
Reaches altitude 10° 18:07:18 10° 147° (SSE) 2,425 4.4 -12.7°
Maximum altitude 18:11:17 21° 100° (E) 1,803 3.4 -13.4°
Enters shadow 18:12:26 19° 84° (E) 1,866 3.3 -13.6°
